星链-5470 (STARLINK-5470 )

导读 | 豆包AI

STARLINK-5470是美国SpaceX公司星链(Starlink)低轨卫星互联网星座中的一颗卫星,于2022年12月17日由猎鹰9号火箭发射升空。它属于星链第一代卫星,运行在近地轨道,配备相控阵天线与氪离子霍尔推进器,可自主规避太空碰撞,为全球提供高速低延迟卫星宽带互联网接入服务,是星链大规模组网中重要组成部分。

基本信息
目录编号:
54776
目录名称:
STARLINK-5470
国际标识:
2022-175U
轨道中心:
EARTH
卫星名称:
星链-5470
卫星全名:
星链-5470 (STARLINK-5470 )
卫星状态:
在轨 (已飞行1184 天)
发射日期:
2022-12-17 UTC
国别 :
美国 (US)
星等 :
--
轨道信息
数据来源 国际轨道数据 AOE轨道数据
星历时间 2026-03-15T04:23:27+0800
15小时前
查看轨道信息
2026-03-11T11:00:00+0800
4天前
查看轨道信息
半长轴 6917.869km 6917.9km
偏心率 0.0001623 0.0002647
轨道倾角 53.220° 53.218°
近地点辐角 104.466° 105.437°
升交点赤经 20.558° 37.280°
平近点角 255.651° 172.162°
近地点 538.609km 537.931km
远地点 540.855km 541.595km
周期 95.437分钟 95.438分钟
每日圈数 15.088439 15.088339
详细信息
固有亮度:
5
最大亮度:
2.5
卫星平台:
Starlink v1.5
覆盖范围:
全球
运营商:
太空探索技术公司
运营商所在国:
美国
制造商(研发单位):
太空探索技术公司
制造商所在国:
美国
使用方式:
暂无
卫星简介
星链(Starlink)计划是由太空探索技术公司(SpaceX)提出的一个巨型低轨卫星互联网星座项目,计划在2019年至2024年间在太空搭建由约1.2万颗卫星组成的“星链”网络,其中1584颗将部署在地球上空550千米处的近地轨道,并从2020年开始工作。该卫星仍在工作。
2D轨道图
3D轨道图
轨道高度分析图
轨道倾角分析图
轨道综合分析图
查看轨道综合分析图